Year,Month,Day,Hour,Minute,Value (Times are PST for temperature in C)
2002,06,23,00,00,18.30
2002,06,23,00,01,18.30
2002,06,23,00,02,18.30
2002,06,23,00,03,18.30
2002,06,23,00,04,18.30
2002,06,23,00,05,18.30
2002,06,23,00,06,18.30
2002,06,23,00,07,18.30
2002,06,23,00,08,18.30
2002,06,23,00,09,18.30
2002,06,23,00,10,18.30
2002,06,23,00,11,18.20
2002,06,23,00,12,18.20
2002,06,23,00,13,18.20
2002,06,23,00,14,18.20
2002,06,23,00,15,18.30
2002,06,23,00,16,18.30
2002,06,23,00,17,18.30
2002,06,23,00,18,18.30
2002,06,23,00,19,18.20
2002,06,23,00,20,18.20
2002,06,23,00,21,18.20
2002,06,23,00,22,18.20
2002,06,23,00,23,18.20
2002,06,23,00,24,18.20
2002,06,23,00,25,18.20
2002,06,23,00,26,18.20
2002,06,23,00,27,18.20
2002,06,23,00,28,18.20
2002,06,23,00,29,18.20
2002,06,23,00,30,18.20
2002,06,23,00,31,18.20
2002,06,23,00,32,18.20
2002,06,23,00,33,18.20
2002,06,23,00,34,18.20
2002,06,23,00,35,18.20
2002,06,23,00,36,18.20
2002,06,23,00,37,18.20
2002,06,23,00,38,18.20
2002,06,23,00,39,18.20
2002,06,23,00,40,18.20
2002,06,23,00,41,18.20
2002,06,23,00,42,18.20
2002,06,23,00,43,18.20
2002,06,23,00,44,18.20
2002,06,23,00,45,18.20
2002,06,23,00,46,18.10
2002,06,23,00,47,18.10
2002,06,23,00,48,18.00
2002,06,23,00,49,17.90
2002,06,23,00,50,17.90
2002,06,23,00,51,17.90
2002,06,23,00,52,17.90
2002,06,23,00,53,17.90
2002,06,23,00,54,17.90
2002,06,23,00,55,17.90
2002,06,23,00,56,17.90
2002,06,23,00,57,17.90
2002,06,23,00,58,17.90
2002,06,23,00,59,17.90
2002,06,23,01,00,17.90
2002,06,23,01,01,17.90
2002,06,23,01,02,17.90
2002,06,23,01,03,17.80
2002,06,23,01,04,17.80
2002,06,23,01,05,17.80
2002,06,23,01,06,17.80
2002,06,23,01,07,17.70
2002,06,23,01,08,17.70
2002,06,23,01,09,17.70
2002,06,23,01,10,17.70
2002,06,23,01,11,17.60
2002,06,23,01,12,17.60
2002,06,23,01,13,17.50
2002,06,23,01,14,17.50
2002,06,23,01,15,17.40
2002,06,23,01,16,17.40
2002,06,23,01,17,17.30
2002,06,23,01,18,17.40
2002,06,23,01,19,17.40
2002,06,23,01,20,17.40
2002,06,23,01,21,17.40
2002,06,23,01,22,17.40
2002,06,23,01,23,17.40
2002,06,23,01,24,17.40
2002,06,23,01,25,17.40
2002,06,23,01,26,17.40
2002,06,23,01,27,17.40
2002,06,23,01,28,17.40
2002,06,23,01,29,17.40
2002,06,23,01,30,17.40
2002,06,23,01,31,17.40
2002,06,23,01,32,17.30
2002,06,23,01,33,17.30
2002,06,23,01,34,17.30
2002,06,23,01,35,17.30
2002,06,23,01,36,17.30
2002,06,23,01,37,17.30
2002,06,23,01,38,17.30
2002,06,23,01,39,17.30
2002,06,23,01,40,17.30
2002,06,23,01,41,17.30
2002,06,23,01,42,17.30
2002,06,23,01,43,17.30
2002,06,23,01,44,17.30
2002,06,23,01,45,17.20
2002,06,23,01,46,17.20
2002,06,23,01,47,17.10
2002,06,23,01,48,17.10
2002,06,23,01,49,17.10
2002,06,23,01,50,17.10
2002,06,23,01,51,17.10
2002,06,23,01,52,17.00
2002,06,23,01,53,17.00
2002,06,23,01,54,17.00
2002,06,23,01,55,17.00
2002,06,23,01,56,17.00
2002,06,23,01,57,16.90
2002,06,23,01,58,16.90
2002,06,23,01,59,16.80
2002,06,23,02,00,16.80
2002,06,23,02,01,16.80
2002,06,23,02,02,16.80
2002,06,23,02,03,16.80
2002,06,23,02,04,16.80
2002,06,23,02,05,16.80
2002,06,23,02,06,16.80
2002,06,23,02,07,16.80
2002,06,23,02,08,16.80
2002,06,23,02,09,16.80
2002,06,23,02,10,16.80
2002,06,23,02,11,16.80
2002,06,23,02,12,16.70
2002,06,23,02,13,16.70
2002,06,23,02,14,16.70
2002,06,23,02,15,16.70
2002,06,23,02,16,16.60
2002,06,23,02,17,16.60
2002,06,23,02,18,16.50
2002,06,23,02,19,16.40
2002,06,23,02,20,16.40
2002,06,23,02,21,16.40
2002,06,23,02,22,16.40
2002,06,23,02,23,16.40
2002,06,23,02,24,16.40
2002,06,23,02,25,16.40
2002,06,23,02,26,16.40
2002,06,23,02,27,16.40
2002,06,23,02,28,16.30
2002,06,23,02,29,16.30
2002,06,23,02,30,16.30
2002,06,23,02,31,16.30
2002,06,23,02,32,16.30
2002,06,23,02,33,16.20
2002,06,23,02,34,16.30
2002,06,23,02,35,16.20
2002,06,23,02,36,16.20
2002,06,23,02,37,16.20
2002,06,23,02,38,16.20
2002,06,23,02,39,16.20
2002,06,23,02,40,16.20
2002,06,23,02,41,16.30
2002,06,23,02,42,16.20
2002,06,23,02,43,16.20
2002,06,23,02,44,16.30
2002,06,23,02,45,16.30
2002,06,23,02,46,16.30
2002,06,23,02,47,16.20
2002,06,23,02,48,16.30
2002,06,23,02,49,16.30
2002,06,23,02,50,16.20
2002,06,23,02,51,16.20
2002,06,23,02,52,16.20
2002,06,23,02,53,16.20
2002,06,23,02,54,16.20
2002,06,23,02,55,16.20
2002,06,23,02,56,16.10
2002,06,23,02,57,16.10
2002,06,23,02,58,15.90
2002,06,23,02,59,15.90
2002,06,23,03,00,15.80
2002,06,23,03,01,15.80
2002,06,23,03,02,15.70
2002,06,23,03,03,15.70
2002,06,23,03,04,15.70
2002,06,23,03,05,15.70
2002,06,23,03,06,15.60
2002,06,23,03,07,15.50
2002,06,23,03,08,15.50
2002,06,23,03,09,15.50
2002,06,23,03,10,15.40
2002,06,23,03,11,15.40
2002,06,23,03,12,15.30
2002,06,23,03,13,15.30
2002,06,23,03,14,15.30
2002,06,23,03,15,15.30
2002,06,23,03,16,15.30
2002,06,23,03,17,15.30
2002,06,23,03,18,15.30
2002,06,23,03,19,15.30
2002,06,23,03,20,15.30
2002,06,23,03,21,15.30
2002,06,23,03,22,15.30
2002,06,23,03,23,15.30
2002,06,23,03,24,15.30
2002,06,23,03,25,15.30
2002,06,23,03,26,15.30
2002,06,23,03,27,15.30
2002,06,23,03,28,15.20
2002,06,23,03,29,15.20
2002,06,23,03,30,15.20
2002,06,23,03,31,15.20
2002,06,23,03,32,15.10
2002,06,23,03,33,15.00
2002,06,23,03,34,15.00
2002,06,23,03,35,15.00
2002,06,23,03,36,14.90
2002,06,23,03,37,14.80
2002,06,23,03,38,14.80
2002,06,23,03,39,14.80
2002,06,23,03,40,14.80
2002,06,23,03,41,14.80
2002,06,23,03,42,14.80
2002,06,23,03,43,14.70
2002,06,23,03,44,14.70
2002,06,23,03,45,14.60
2002,06,23,03,46,14.60
2002,06,23,03,47,14.60
2002,06,23,03,48,14.50
2002,06,23,03,49,14.50
2002,06,23,03,50,14.40
2002,06,23,03,51,14.40
2002,06,23,03,52,14.40
2002,06,23,03,53,14.30
2002,06,23,03,54,14.30
2002,06,23,03,55,14.20
2002,06,23,03,56,14.20
2002,06,23,03,57,14.20
2002,06,23,03,58,14.20
2002,06,23,03,59,14.20
2002,06,23,04,00,14.20
2002,06,23,04,01,14.10
2002,06,23,04,02,14.10
2002,06,23,04,03,14.10
2002,06,23,04,04,14.10
2002,06,23,04,05,14.10
2002,06,23,04,06,14.10
2002,06,23,04,07,14.10
2002,06,23,04,08,14.10
2002,06,23,04,09,14.10
2002,06,23,04,10,14.10
2002,06,23,04,11,14.10
2002,06,23,04,12,14.10
2002,06,23,04,13,14.00
2002,06,23,04,14,14.00
2002,06,23,04,15,14.00
2002,06,23,04,16,14.00
2002,06,23,04,17,14.10
2002,06,23,04,18,14.10
2002,06,23,04,19,14.10
2002,06,23,04,20,14.10
2002,06,23,04,21,14.10
2002,06,23,04,22,14.10
2002,06,23,04,23,14.10
2002,06,23,04,24,14.20
2002,06,23,04,25,14.20
2002,06,23,04,26,14.20
2002,06,23,04,27,14.20
2002,06,23,04,28,14.20
2002,06,23,04,29,14.20
2002,06,23,04,30,14.20
2002,06,23,04,31,14.20
2002,06,23,04,32,14.20
2002,06,23,04,33,14.20
2002,06,23,04,34,14.20
2002,06,23,04,35,14.20
2002,06,23,04,36,14.20
2002,06,23,04,37,14.20
2002,06,23,04,38,14.20
2002,06,23,04,39,14.20
2002,06,23,04,40,14.20
2002,06,23,04,41,14.20
2002,06,23,04,42,14.20
2002,06,23,04,43,14.20
2002,06,23,04,44,14.20
2002,06,23,04,45,14.20
2002,06,23,04,46,14.20
2002,06,23,04,47,14.20
2002,06,23,04,48,14.10
2002,06,23,04,49,14.10
2002,06,23,04,50,14.10
2002,06,23,04,51,14.00
2002,06,23,04,52,14.00
2002,06,23,04,53,13.90
2002,06,23,04,54,13.90
2002,06,23,04,55,13.90
2002,06,23,04,56,13.80
2002,06,23,04,57,13.60
2002,06,23,04,58,13.60
2002,06,23,04,59,13.50
2002,06,23,05,00,13.50
2002,06,23,05,01,13.40
2002,06,23,05,02,13.40
2002,06,23,05,03,13.30
2002,06,23,05,04,13.30
2002,06,23,05,05,13.20
2002,06,23,05,06,13.10
2002,06,23,05,07,13.10
2002,06,23,05,08,13.00
2002,06,23,05,09,13.00
2002,06,23,05,10,12.90
2002,06,23,05,11,12.80
2002,06,23,05,12,12.80
2002,06,23,05,13,12.70
2002,06,23,05,14,12.70
2002,06,23,05,15,12.60
2002,06,23,05,16,12.60
2002,06,23,05,17,12.60
2002,06,23,05,18,12.50
2002,06,23,05,19,12.50
2002,06,23,05,20,12.40
2002,06,23,05,21,12.40
2002,06,23,05,22,12.40
2002,06,23,05,23,12.40
2002,06,23,05,24,12.40
2002,06,23,05,25,12.40
2002,06,23,05,26,12.40
2002,06,23,05,27,12.40
2002,06,23,05,28,12.40
2002,06,23,05,29,12.40
2002,06,23,05,30,12.40
2002,06,23,05,31,12.50
2002,06,23,05,32,12.50
2002,06,23,05,33,12.50
2002,06,23,05,34,12.50
2002,06,23,05,35,12.50
2002,06,23,05,36,12.50
2002,06,23,05,37,12.50
2002,06,23,05,38,12.50
2002,06,23,05,39,12.50
2002,06,23,05,40,12.50
2002,06,23,05,41,12.60
2002,06,23,05,42,12.60
2002,06,23,05,43,12.60
2002,06,23,05,44,12.60
2002,06,23,05,45,12.60
2002,06,23,05,46,12.60
2002,06,23,05,47,12.60
2002,06,23,05,48,12.60
2002,06,23,05,49,12.60
2002,06,23,05,50,12.60
2002,06,23,05,51,12.60
2002,06,23,05,52,12.60
2002,06,23,05,53,12.60
2002,06,23,05,54,12.70
2002,06,23,05,55,12.70
2002,06,23,05,56,12.70
2002,06,23,05,57,12.80
2002,06,23,05,58,12.80
2002,06,23,05,59,12.80
2002,06,23,06,00,12.80
2002,06,23,06,01,12.80
2002,06,23,06,02,12.90
2002,06,23,06,03,12.90
2002,06,23,06,04,13.00
2002,06,23,06,05,13.00
2002,06,23,06,06,13.10
2002,06,23,06,07,13.10
2002,06,23,06,08,13.20
2002,06,23,06,09,13.30
2002,06,23,06,10,13.30
2002,06,23,06,11,13.30
2002,06,23,06,12,13.30
2002,06,23,06,13,13.30
2002,06,23,06,14,13.30
2002,06,23,06,15,13.30
2002,06,23,06,16,13.30
2002,06,23,06,17,13.30
2002,06,23,06,18,13.40
2002,06,23,06,19,13.40
2002,06,23,06,20,13.50
2002,06,23,06,21,13.40
2002,06,23,06,22,13.40
2002,06,23,06,23,13.40
2002,06,23,06,24,13.40
2002,06,23,06,25,13.40
2002,06,23,06,26,13.40
2002,06,23,06,27,13.40
2002,06,23,06,28,13.40
2002,06,23,06,29,13.40
2002,06,23,06,30,13.40
2002,06,23,06,31,13.40
2002,06,23,06,32,13.40
2002,06,23,06,33,13.50
2002,06,23,06,34,13.50
2002,06,23,06,35,13.50
2002,06,23,06,36,13.50
2002,06,23,06,37,13.50
2002,06,23,06,38,13.50
2002,06,23,06,39,13.50
2002,06,23,06,40,13.40
2002,06,23,06,41,13.40
2002,06,23,06,42,13.40
2002,06,23,06,43,13.30
2002,06,23,06,44,13.30
2002,06,23,06,45,13.30
2002,06,23,06,46,13.20
2002,06,23,06,47,13.20
2002,06,23,06,48,13.20
2002,06,23,06,49,13.20
2002,06,23,06,50,13.20
2002,06,23,06,51,13.20
2002,06,23,06,52,13.20
2002,06,23,06,53,13.20
2002,06,23,06,54,13.30
2002,06,23,06,55,13.20
2002,06,23,06,56,13.20
2002,06,23,06,57,13.30
2002,06,23,06,58,13.30
2002,06,23,06,59,13.30
2002,06,23,07,00,13.30
2002,06,23,07,01,13.30
2002,06,23,07,02,13.30
2002,06,23,07,03,13.40
2002,06,23,07,04,13.30
2002,06,23,07,05,13.40
2002,06,23,07,06,13.40
2002,06,23,07,07,13.50
2002,06,23,07,08,13.50
2002,06,23,07,09,13.50
2002,06,23,07,10,13.60
2002,06,23,07,11,13.60
2002,06,23,07,12,13.60
2002,06,23,07,13,13.70
2002,06,23,07,14,13.70
2002,06,23,07,15,13.70
2002,06,23,07,16,13.70
2002,06,23,07,17,13.70
2002,06,23,07,18,13.70
2002,06,23,07,19,13.70
2002,06,23,07,20,13.70
2002,06,23,07,21,13.70
2002,06,23,07,22,13.70
2002,06,23,07,23,13.60
2002,06,23,07,24,13.50
2002,06,23,07,25,13.50
2002,06,23,07,26,13.50
2002,06,23,07,27,13.50
2002,06,23,07,28,13.50
2002,06,23,07,29,13.60
2002,06,23,07,30,13.60
2002,06,23,07,31,13.60
2002,06,23,07,32,13.60
2002,06,23,07,33,13.70
2002,06,23,07,34,13.70
2002,06,23,07,35,13.70
2002,06,23,07,36,13.70
2002,06,23,07,37,13.70
2002,06,23,07,38,13.70
2002,06,23,07,39,13.70
2002,06,23,07,40,13.70
2002,06,23,07,41,13.70
2002,06,23,07,42,13.70
2002,06,23,07,43,13.60
2002,06,23,07,44,13.60
2002,06,23,07,45,13.60
2002,06,23,07,46,13.60
2002,06,23,07,47,13.60
2002,06,23,07,48,13.70
2002,06,23,07,49,13.60
2002,06,23,07,50,13.60
2002,06,23,07,51,13.40
2002,06,23,07,52,13.40
2002,06,23,07,53,13.30
2002,06,23,07,54,13.30
2002,06,23,07,55,13.30
2002,06,23,07,56,13.30
2002,06,23,07,57,13.40
2002,06,23,07,58,13.50
2002,06,23,07,59,13.50
2002,06,23,08,00,13.50
2002,06,23,08,01,13.60
2002,06,23,08,02,13.70
2002,06,23,08,03,13.70
2002,06,23,08,04,13.70
2002,06,23,08,05,13.60
2002,06,23,08,06,13.50
2002,06,23,08,07,13.40
2002,06,23,08,08,13.30
2002,06,23,08,09,13.30
2002,06,23,08,10,13.30
2002,06,23,08,11,13.30
2002,06,23,08,12,13.30
2002,06,23,08,13,13.30
2002,06,23,08,14,13.40
2002,06,23,08,15,13.50
2002,06,23,08,16,13.60
2002,06,23,08,17,13.70
2002,06,23,08,18,13.80
2002,06,23,08,19,13.90
2002,06,23,08,20,14.10
2002,06,23,08,21,14.20
2002,06,23,08,22,14.40
2002,06,23,08,23,14.40
2002,06,23,08,24,14.60
2002,06,23,08,25,14.60
2002,06,23,08,26,14.60
2002,06,23,08,27,14.70
2002,06,23,08,28,14.70
2002,06,23,08,29,14.80
2002,06,23,08,30,14.80
2002,06,23,08,31,14.80
2002,06,23,08,32,14.90
2002,06,23,08,33,14.70
2002,06,23,08,34,14.70
2002,06,23,08,35,14.70
2002,06,23,08,36,14.60
2002,06,23,08,37,14.60
2002,06,23,08,38,14.50
2002,06,23,08,39,14.50
2002,06,23,08,40,14.50
2002,06,23,08,41,14.40
2002,06,23,08,42,14.40
2002,06,23,08,43,14.50
2002,06,23,08,44,14.50
2002,06,23,08,45,14.50
2002,06,23,08,46,14.40
2002,06,23,08,47,14.40
2002,06,23,08,48,14.40
2002,06,23,08,49,14.50
2002,06,23,08,50,14.60
2002,06,23,08,51,14.60
2002,06,23,08,52,14.70
2002,06,23,08,53,14.90
2002,06,23,08,54,15.10
2002,06,23,08,55,15.00
2002,06,23,08,56,15.00
2002,06,23,08,57,14.90
2002,06,23,08,58,14.90
2002,06,23,08,59,14.80
2002,06,23,09,00,14.70
2002,06,23,09,01,14.80
2002,06,23,09,02,14.90
2002,06,23,09,03,14.90
2002,06,23,09,04,15.00
2002,06,23,09,05,15.20
2002,06,23,09,06,15.30
2002,06,23,09,07,15.10
2002,06,23,09,08,15.10
2002,06,23,09,09,15.10
2002,06,23,09,10,15.00
2002,06,23,09,11,15.00
2002,06,23,09,12,15.00
2002,06,23,09,13,15.00
2002,06,23,09,14,14.90
2002,06,23,09,15,14.90
2002,06,23,09,16,14.90
2002,06,23,09,17,15.00
2002,06,23,09,18,15.10
2002,06,23,09,19,15.10
2002,06,23,09,20,15.00
2002,06,23,09,21,15.10
2002,06,23,09,22,14.90
2002,06,23,09,23,14.90
2002,06,23,09,24,15.00
2002,06,23,09,25,15.10
2002,06,23,09,26,15.00
2002,06,23,09,27,14.90
2002,06,23,09,28,14.90
2002,06,23,09,29,14.80
2002,06,23,09,30,15.00
2002,06,23,09,31,15.10
2002,06,23,09,32,15.40
2002,06,23,09,33,15.40
2002,06,23,09,34,15.40
2002,06,23,09,35,15.30
2002,06,23,09,36,15.10
2002,06,23,09,37,14.90
2002,06,23,09,38,14.80
2002,06,23,09,39,14.80
2002,06,23,09,40,14.80
2002,06,23,09,41,14.80
2002,06,23,09,42,14.80
2002,06,23,09,43,14.80
2002,06,23,09,44,14.80
2002,06,23,09,45,14.80
2002,06,23,09,46,14.80
2002,06,23,09,47,14.60
2002,06,23,09,48,14.60
2002,06,23,09,49,14.80
2002,06,23,09,50,14.70
2002,06,23,09,51,14.70
2002,06,23,09,52,14.50
2002,06,23,09,53,14.50
2002,06,23,09,54,14.60
2002,06,23,09,55,14.70
2002,06,23,09,56,14.80
2002,06,23,09,57,14.80
2002,06,23,09,58,14.80
2002,06,23,09,59,14.60
2002,06,23,10,00,14.40
2002,06,23,10,01,14.40
2002,06,23,10,02,14.40
2002,06,23,10,03,14.50
2002,06,23,10,04,14.70
2002,06,23,10,05,14.80
2002,06,23,10,06,14.80
2002,06,23,10,07,14.70
2002,06,23,10,08,14.60
2002,06,23,10,09,14.50
2002,06,23,10,10,14.50
2002,06,23,10,11,14.40
2002,06,23,10,12,14.40
2002,06,23,10,13,14.50
2002,06,23,10,14,14.50
2002,06,23,10,15,14.40
2002,06,23,10,16,14.50
2002,06,23,10,17,14.60
2002,06,23,10,18,14.60
2002,06,23,10,19,14.70
2002,06,23,10,20,14.70
2002,06,23,10,21,14.80
2002,06,23,10,22,14.70
2002,06,23,10,23,14.70
2002,06,23,10,24,14.60
2002,06,23,10,25,14.70
2002,06,23,10,26,14.70
2002,06,23,10,27,14.60
2002,06,23,10,28,14.60
2002,06,23,10,29,14.60
2002,06,23,10,30,14.60
2002,06,23,10,31,14.60
2002,06,23,10,32,14.60
2002,06,23,10,33,14.70
2002,06,23,10,34,15.00
2002,06,23,10,35,15.10
2002,06,23,10,36,15.30
2002,06,23,10,37,15.40
2002,06,23,10,38,15.40
2002,06,23,10,39,15.40
2002,06,23,10,40,15.30
2002,06,23,10,41,15.30
2002,06,23,10,42,15.20
2002,06,23,10,43,15.10
2002,06,23,10,44,15.20
2002,06,23,10,45,15.20
2002,06,23,10,46,15.30
2002,06,23,10,47,15.50
2002,06,23,10,48,15.60
2002,06,23,10,49,15.60
2002,06,23,10,50,15.40
2002,06,23,10,51,15.30
2002,06,23,10,52,15.20
2002,06,23,10,53,15.10
2002,06,23,10,54,15.10
2002,06,23,10,55,15.20
2002,06,23,10,56,15.10
2002,06,23,10,57,15.10
2002,06,23,10,58,15.00
2002,06,23,10,59,15.10
2002,06,23,11,00,15.10
2002,06,23,11,01,15.10
2002,06,23,11,02,15.20
2002,06,23,11,03,15.10
2002,06,23,11,04,15.10
2002,06,23,11,05,15.10
2002,06,23,11,06,15.30
2002,06,23,11,07,15.50
2002,06,23,11,08,15.70
2002,06,23,11,09,15.90
2002,06,23,11,10,16.00
2002,06,23,11,11,16.10
2002,06,23,11,12,16.00
2002,06,23,11,13,15.70
2002,06,23,11,14,15.70
2002,06,23,11,15,15.60
2002,06,23,11,16,15.50
2002,06,23,11,17,15.70
2002,06,23,11,18,15.80
2002,06,23,11,19,15.80
2002,06,23,11,20,15.80
2002,06,23,11,21,15.90
2002,06,23,11,22,16.00
2002,06,23,11,23,16.20
2002,06,23,11,24,16.30
2002,06,23,11,25,16.40
2002,06,23,11,26,16.10
2002,06,23,11,27,16.10
2002,06,23,11,28,16.20
2002,06,23,11,29,16.20
2002,06,23,11,30,16.20
2002,06,23,11,31,16.10
2002,06,23,11,32,16.10
2002,06,23,11,33,16.20
2002,06,23,11,34,16.30
2002,06,23,11,35,16.30
2002,06,23,11,36,16.10
2002,06,23,11,37,16.20
2002,06,23,11,38,16.40
2002,06,23,11,39,16.40
2002,06,23,11,40,16.50
2002,06,23,11,41,16.40
2002,06,23,11,42,16.50
2002,06,23,11,43,16.40
2002,06,23,11,44,16.40
2002,06,23,11,45,16.50
2002,06,23,11,46,16.50
2002,06,23,11,47,16.30
2002,06,23,11,48,16.30
2002,06,23,11,49,16.30
2002,06,23,11,50,16.20
2002,06,23,11,51,16.40
2002,06,23,11,52,16.40
2002,06,23,11,53,16.50
2002,06,23,11,54,16.80
2002,06,23,11,55,16.80
2002,06,23,11,56,16.80
2002,06,23,11,57,16.90
2002,06,23,11,58,17.00
2002,06,23,11,59,17.10
2002,06,23,12,00,17.10
2002,06,23,12,01,17.10
2002,06,23,12,02,17.00
2002,06,23,12,03,16.90
2002,06,23,12,04,16.80
2002,06,23,12,05,16.80
2002,06,23,12,06,16.80
2002,06,23,12,07,16.70
2002,06,23,12,08,16.60
2002,06,23,12,09,16.50
2002,06,23,12,10,16.40
2002,06,23,12,11,16.50
2002,06,23,12,12,16.50
2002,06,23,12,13,16.60
2002,06,23,12,14,16.50
2002,06,23,12,15,16.40
2002,06,23,12,16,16.20
2002,06,23,12,17,16.20
2002,06,23,12,18,16.30
2002,06,23,12,19,16.50
2002,06,23,12,20,16.40
2002,06,23,12,21,16.50
2002,06,23,12,22,16.40
2002,06,23,12,23,16.40
2002,06,23,12,24,16.30
2002,06,23,12,25,16.50
2002,06,23,12,26,16.80
2002,06,23,12,27,16.90
2002,06,23,12,28,17.00
2002,06,23,12,29,17.20
2002,06,23,12,30,17.30
2002,06,23,12,31,17.10
2002,06,23,12,32,16.90
2002,06,23,12,33,17.00
2002,06,23,12,34,17.00
2002,06,23,12,35,17.00
2002,06,23,12,36,16.80
2002,06,23,12,37,16.80
2002,06,23,12,38,16.90
2002,06,23,12,39,16.90
2002,06,23,12,40,17.00
2002,06,23,12,41,17.10
2002,06,23,12,42,16.80
2002,06,23,12,43,16.70
2002,06,23,12,44,16.90
2002,06,23,12,45,17.00
2002,06,23,12,46,17.20
2002,06,23,12,47,17.20
2002,06,23,12,48,17.20
2002,06,23,12,49,17.10
2002,06,23,12,50,17.10
2002,06,23,12,51,17.00
2002,06,23,12,52,17.00
2002,06,23,12,53,16.90
2002,06,23,12,54,17.00
2002,06,23,12,55,17.10
2002,06,23,12,56,17.30
2002,06,23,12,57,17.20
2002,06,23,12,58,17.20
2002,06,23,12,59,17.20
2002,06,23,13,00,17.20
2002,06,23,13,01,17.20
2002,06,23,13,02,17.20
2002,06,23,13,03,17.40
2002,06,23,13,04,17.50
2002,06,23,13,05,17.50
2002,06,23,13,06,17.50
2002,06,23,13,07,17.80
2002,06,23,13,08,18.10
2002,06,23,13,09,18.10
2002,06,23,13,10,17.90
2002,06,23,13,11,17.90
2002,06,23,13,12,17.90
2002,06,23,13,13,18.00
2002,06,23,13,14,18.10
2002,06,23,13,15,18.10
2002,06,23,13,16,18.00
2002,06,23,13,17,18.10
2002,06,23,13,18,18.30
2002,06,23,13,19,18.50
2002,06,23,13,20,18.50
2002,06,23,13,21,18.50
2002,06,23,13,22,18.30
2002,06,23,13,23,18.30
2002,06,23,13,24,18.30
2002,06,23,13,25,18.50
2002,06,23,13,26,18.70
2002,06,23,13,27,18.70
2002,06,23,13,28,18.90
2002,06,23,13,29,18.90
2002,06,23,13,30,18.80
2002,06,23,13,31,18.90
2002,06,23,13,32,19.00
2002,06,23,13,33,18.90
2002,06,23,13,34,18.70
2002,06,23,13,35,18.70
2002,06,23,13,36,18.70
2002,06,23,13,37,18.70
2002,06,23,13,38,18.90
2002,06,23,13,39,18.90
2002,06,23,13,40,19.10
2002,06,23,13,41,19.50
2002,06,23,13,42,19.80
2002,06,23,13,43,20.00
2002,06,23,13,44,20.30
2002,06,23,13,45,20.40
2002,06,23,13,46,20.50
2002,06,23,13,47,20.60
2002,06,23,13,48,20.60
2002,06,23,13,49,20.70
2002,06,23,13,50,20.50
2002,06,23,13,51,20.60
2002,06,23,13,52,20.40
2002,06,23,13,53,20.30
2002,06,23,13,54,20.30
2002,06,23,13,55,20.40
2002,06,23,13,56,20.40
2002,06,23,13,57,20.20
2002,06,23,13,58,19.90
2002,06,23,13,59,20.00
2002,06,23,14,00,19.70
2002,06,23,14,01,19.60
2002,06,23,14,02,19.60
2002,06,23,14,03,19.60
2002,06,23,14,04,19.50
2002,06,23,14,05,19.40
2002,06,23,14,06,19.40
2002,06,23,14,07,19.50
2002,06,23,14,08,19.50
2002,06,23,14,09,19.60
2002,06,23,14,10,19.50
2002,06,23,14,11,19.30
2002,06,23,14,12,19.40
2002,06,23,14,13,19.60
2002,06,23,14,14,19.80
2002,06,23,14,15,19.90
2002,06,23,14,16,20.00
2002,06,23,14,17,19.90
2002,06,23,14,18,19.80
2002,06,23,14,19,19.70
2002,06,23,14,20,19.70
2002,06,23,14,21,19.50
2002,06,23,14,22,19.30
2002,06,23,14,23,19.10
2002,06,23,14,24,19.10
2002,06,23,14,25,19.20
2002,06,23,14,26,19.50
2002,06,23,14,27,19.80
2002,06,23,14,28,19.90
2002,06,23,14,29,20.00
2002,06,23,14,30,20.20
2002,06,23,14,31,20.30
2002,06,23,14,32,20.20
2002,06,23,14,33,20.00
2002,06,23,14,34,19.90
2002,06,23,14,35,20.00
2002,06,23,14,36,19.80
2002,06,23,14,37,19.70
2002,06,23,14,38,19.70
2002,06,23,14,39,19.70
2002,06,23,14,40,19.80
2002,06,23,14,41,19.80
2002,06,23,14,42,19.70
2002,06,23,14,43,19.80
2002,06,23,14,44,19.70
2002,06,23,14,45,19.50
2002,06,23,14,46,19.50
2002,06,23,14,47,19.60
2002,06,23,14,48,19.40
2002,06,23,14,49,19.30
2002,06,23,14,50,19.20
2002,06,23,14,51,19.30
2002,06,23,14,52,19.40
2002,06,23,14,53,19.50
2002,06,23,14,54,19.60
2002,06,23,14,55,19.60
2002,06,23,14,56,19.80
2002,06,23,14,57,19.80
2002,06,23,14,58,19.80
2002,06,23,14,59,20.10
2002,06,23,15,00,20.20
2002,06,23,15,01,20.30
2002,06,23,15,02,20.20
2002,06,23,15,03,20.10
2002,06,23,15,04,19.90
2002,06,23,15,05,19.80
2002,06,23,15,06,19.70
2002,06,23,15,07,19.60
2002,06,23,15,08,19.50
2002,06,23,15,09,19.40
2002,06,23,15,10,19.50
2002,06,23,15,11,19.50
2002,06,23,15,12,19.60
2002,06,23,15,13,19.60
2002,06,23,15,14,19.60
2002,06,23,15,15,19.60
2002,06,23,15,16,19.70
2002,06,23,15,17,19.70
2002,06,23,15,18,19.70
2002,06,23,15,19,19.80
2002,06,23,15,20,19.80
2002,06,23,15,21,19.80
2002,06,23,15,22,19.70
2002,06,23,15,23,19.60
2002,06,23,15,24,19.50
2002,06,23,15,25,19.50
2002,06,23,15,26,19.50
2002,06,23,15,27,19.50
2002,06,23,15,28,19.60
2002,06,23,15,29,19.70
2002,06,23,15,30,19.80
2002,06,23,15,31,19.90
2002,06,23,15,32,20.00
2002,06,23,15,33,19.80
2002,06,23,15,34,19.90
2002,06,23,15,35,19.70
2002,06,23,15,36,19.60
2002,06,23,15,37,19.60
2002,06,23,15,38,19.40
2002,06,23,15,39,19.50
2002,06,23,15,40,19.60
2002,06,23,15,41,19.70
2002,06,23,15,42,19.90
2002,06,23,15,43,20.00
2002,06,23,15,44,20.00
2002,06,23,15,45,20.10
2002,06,23,15,46,20.10
2002,06,23,15,47,20.20
2002,06,23,15,48,20.30
2002,06,23,15,49,20.40
2002,06,23,15,50,20.50
2002,06,23,15,51,20.60
2002,06,23,15,52,20.50
2002,06,23,15,53,20.50
2002,06,23,15,54,20.50
2002,06,23,15,55,20.70
2002,06,23,15,56,20.70
2002,06,23,15,57,20.70
2002,06,23,15,58,20.80
2002,06,23,15,59,20.70
2002,06,23,16,00,20.70
2002,06,23,16,01,20.80
2002,06,23,16,02,20.90
2002,06,23,16,03,20.70
2002,06,23,16,04,20.70
2002,06,23,16,05,20.70
2002,06,23,16,06,20.80
2002,06,23,16,07,20.70
2002,06,23,16,08,20.60
2002,06,23,16,09,20.50
2002,06,23,16,10,20.60
2002,06,23,16,11,20.70
2002,06,23,16,12,20.80
2002,06,23,16,13,21.00
2002,06,23,16,14,21.20
2002,06,23,16,15,21.20
2002,06,23,16,16,21.20
2002,06,23,16,17,21.20
2002,06,23,16,18,21.10
2002,06,23,16,19,21.10
2002,06,23,16,20,21.10
2002,06,23,16,21,21.10
2002,06,23,16,22,21.20
2002,06,23,16,23,21.20
2002,06,23,16,24,21.10
2002,06,23,16,25,21.00
2002,06,23,16,26,21.00
2002,06,23,16,27,21.10
2002,06,23,16,28,20.90
2002,06,23,16,29,20.90
2002,06,23,16,30,20.90
2002,06,23,16,31,20.70
2002,06,23,16,32,20.70
2002,06,23,16,33,20.70
2002,06,23,16,34,20.70
2002,06,23,16,35,20.80
2002,06,23,16,36,20.80
2002,06,23,16,37,20.70
2002,06,23,16,38,20.70
2002,06,23,16,39,20.60
2002,06,23,16,40,20.60
2002,06,23,16,41,20.60
2002,06,23,16,42,20.50
2002,06,23,16,43,20.50
2002,06,23,16,44,20.30
2002,06,23,16,45,20.20
2002,06,23,16,46,20.20
2002,06,23,16,47,20.30
2002,06,23,16,48,20.30
2002,06,23,16,49,20.30
2002,06,23,16,50,20.20
2002,06,23,16,51,20.30
2002,06,23,16,52,20.20
2002,06,23,16,53,20.20
2002,06,23,16,54,20.30
2002,06,23,16,55,20.50
2002,06,23,16,56,20.50
2002,06,23,16,57,20.50
2002,06,23,16,58,20.40
2002,06,23,16,59,20.40
2002,06,23,17,00,20.30
2002,06,23,17,01,20.20
2002,06,23,17,02,20.10
2002,06,23,17,03,20.10
2002,06,23,17,04,20.00
2002,06,23,17,05,20.00
2002,06,23,17,06,19.90
2002,06,23,17,07,19.90
2002,06,23,17,08,19.90
2002,06,23,17,09,19.70
2002,06,23,17,10,19.70
2002,06,23,17,11,19.60
2002,06,23,17,12,19.60
2002,06,23,17,13,19.50
2002,06,23,17,14,19.60
2002,06,23,17,15,19.60
2002,06,23,17,16,19.60
2002,06,23,17,17,19.60
2002,06,23,17,18,19.60
2002,06,23,17,19,19.60